{"data":{"norad_id":47283,"epoch":"2026-05-25T03:00:50.810976Z","epoch_age_seconds":71028,"freshness":"FRESH","line1":"1 47283U 20100AB  26145.12558809  .00000193  00000+0  50027-3 0  9992","line2":"2 47283  87.8963 355.2447 0001872  88.6239 271.5104 13.12441588261546","mean_motion":13.12441588,"eccentricity":0.0001872,"inclination_deg":87.8963,"raan_deg":355.2447,"arg_perigee_deg":88.6239,"mean_anomaly_deg":271.5104,"bstar":0.00050027,"rev_number":26154,"period_min":109.71916869797,"perigee_km":1212.3075389537,"apogee_km":1215.1499334853,"semimajor_km":7591.8657362195,"source":"CELESTRAK","updated_at":"2026-05-25T13:38:22.384745Z"}}